Location: Zihuatanejo
(17.6330°N, 101.5500°W)
Time: 10:17:20
(UTC-06:00)

Daily predictions for brighter satellites

Satellite Brightness Start Highest point End
(mag) Time Altitude Azimuth Time Altitude Azimuth Time Altitude Azimuth
H-2A ROCKET BODY 4.5 18:16:46 10° NW 18:23:32 59° NNE 19:09:05 10° ESE
Cosmos 1725 Rocket 4.1 19:02:08 10° N 19:08:26 88° W 19:14:40 10° S
Thor Agena Rocket 4.4 19:06:57 10° NE 19:11:11 27° E 19:15:22 10° SSE
Cosmos 1908 Rocket 4.4 19:07:50 10° SSE 19:11:41 29° E 19:15:33 10° NNE
COSMOS 2428 2.8 19:06:21 10° NNW 19:12:05 85° WSW 19:17:46 10° SSE
GPS 2-18 Rocket1 3.4 19:08:09 10° W 19:12:11 70° SSW 19:16:13 10° ESE
YAOGAN 1 2.9 19:08:31 10° S 19:12:49 74° WSW 19:17:08 10° NNW
GPS 2-05 Rocket1 3.1 19:11:40 10° SW 19:14:41 42° SE 19:17:39 10° ENE
Okean 1-7 4.4 19:14:36 10° NNW 19:18:48 44° W 19:22:58 10° SSW
Sakura Rocket 4.5 19:14:14 10° W 19:19:25 51° NNW 19:26:41 10° ENE
Cosmos 1733 Rocket 3.5 19:15:57 10° SSW 19:20:15 67° W 19:24:33 10° N
CZ-3A R/B 3.1 19:19:29 10° W 19:23:33 73° N 19:42:41 14° ENE
EO 1 Del DPAF 4.4 19:21:07 10° N 19:24:47 47° WNW 19:28:27 10° SSW
Cosmos 1371 Rocket 4.0 19:23:57 10° N 19:29:14 72° ENE 19:34:32 10° SSE
ARGOS Delta rocket 4.4 19:27:25 10° NE 19:31:33 31° E 19:35:30 10° SSE
Cosmos 1980 4.1 19:26:18 10° N 19:31:39 41° ENE 19:36:57 10° SE
Cosmos 1867 4.3 19:26:31 10° NW 19:31:50 57° WSW 19:37:07 10° S
MOS 1 4.4 19:30:10 10° S 19:35:48 83° WSW 19:41:28 10° NNW
NOSS 0 Rocket 3.9 19:31:48 10° N 19:37:56 66° ENE 19:44:06 10° SSE
SJ-6B 4.0 19:39:45 19° ENE 19:39:45 19° ENE 19:42:12 10° NNE
Okean 3 3.9 19:38:19 10° NNE 19:42:10 36° E 19:46:00 10° SSE
Lacrosse 4 Rocket 4.2 19:39:34 10° NW 19:42:57 23° WSW 19:46:22 10° SSW
DELTA 2 R/B (1) 4.0 19:37:47 10° NW 19:43:05 45° NE 19:46:37 20° E
SPOT 3 Rocket 3.6 19:39:10 10° SSE 19:44:20 87° WSW 19:49:32 10° NNW
Tsikada Rocket 4.4 19:41:37 10° SSE 19:47:30 41° E 19:53:26 10° NNE
Centaur AC-146 1.1 19:47:48 10° W 19:49:53 68° N 19:51:03 31° ENE
GPS 2-04 Rocket1 2.7 19:49:40 10° NW 19:53:16 48° NNE 19:54:14 36° ENE
FREGAT/IRIS 2.3 19:52:03 10° SSE 19:54:58 71° E 19:57:54 10° N
Cosmos 2056 Rocket 3.8 19:53:13 10° NNW 19:58:37 73° WSW 20:03:59 10° S
Cosmos 1048 Rocket 4.4 19:54:41 10° SSW 20:00:00 66° WNW 20:05:18 10° N
CENTAUR R/B 3.9 19:55:07 10° WSW 20:00:10 33° WNW 20:05:41 10° N
Sich 1 Rocket 3.7 19:56:48 10° S 20:01:21 80° W 20:05:52 10° N
H-2A R/B 3.4 19:58:34 10° S 20:02:24 57° W 20:06:15 10° NNW
Cosmos 2219 Rocket 3.6 19:58:26 10° NW 20:03:40 40° WSW 20:08:52 10° S
Cosmos 1452 Rocket 3.8 20:00:07 10° N 20:05:01 40° ENE 20:06:50 30° ESE
Cosmos 1782 Rocket 3.5 20:04:34 10° S 20:09:03 89° NW 20:13:29 10° N
FUSE 4.1 20:10:59 10° WNW 20:16:12 56° NNE 20:17:18 47° ENE
Cosmos 2237 Rocket 2.4 20:10:55 10° NNW 20:16:30 73° WSW 20:22:05 10° S
Cosmos 1378 Rocket 3.4 20:13:20 10° N 20:17:45 80° E 20:22:11 10° S
SL-16 R/B 3.0 20:13:52 10° N 20:17:32 32° NE 20:17:32 32° NE
Okean 2 Rocket 2.9 20:16:29 10° S 20:20:50 69° E 20:20:50 69° E
Cosmos 1464 Rocket 3.9 20:14:56 10° N 20:21:03 89° W 20:27:13 10° S
GPS 2-14 Rocket1 3.1 20:20:20 10° WNW 20:24:16 54° NNW 20:24:16 54° NNW
Iridium 4 Rocket 3.6 20:20:15 10° N 20:24:48 60° W 20:29:01 10° SSW
Cosmos 1420 Rocket 4.4 20:22:24 10° N 20:26:19 44° NNE 20:26:19 44° NNE
ERS-2 3.9 20:25:52 10° SSW 20:29:11 32° W 20:32:31 10° NW
COSMOS 2455 2.7 20:23:54 10° SSW 20:29:51 69° ESE 20:31:04 55° NE
Meteor 1-18 Rocket 4.3 20:29:25 10° N 20:34:58 73° W 20:40:28 10° S
Lacrosse 5 2.0 20:31:10 10° NNW 20:35:27 62° N 20:35:27 62° N
Alouette 2 Rocket 4.1 20:33:05 10° S 20:37:00 53° SSW 20:37:00 53° SSW
GPS 2-12 Rocket1 3.4 20:33:39 10° W 20:37:56 61° NW 20:37:56 61° NW
Meteor 1-11 Rocket 3.5 20:34:22 10° S 20:39:53 87° E 20:40:38 68° NNE
Envisat 3.1 20:41:41 10° S 20:46:44 72° WSW 20:51:47 10° NNW
Cosmos 2263 Rocket 3.2 20:45:05 10° S 20:48:12 35° S 20:48:12 35° S
SeaSat 1 4.2 20:58:01 23° NNW 20:58:01 23° NNW 20:59:50 10° NNW
Cosmos 2034 Rocket 4.4 20:48:53 10° NNW 20:55:09 62° W 21:01:22 10° S
ATLAS 2A CENTAUR R/B 3.1 20:52:48 10° WNW 21:00:01 36° SW 21:00:01 36° SW
IUS-1 SRM-2 4.4 21:08:58 10° WNW 21:24:21 56° NW 21:24:21 56° NW
CZ-3C R/B 4.3 22:23:25 10° W 23:13:02 20° E 23:52:20 10° ESE
